Tracking 29892 objects as of 21-Nov-2024
HD Live streaming from Space Station
objects crossing your sky now

ARIANE 3 DEB

Track ARIANE 3 DEB now!
10-day predictions


NORAD ID: 18571
Int'l Code: 1987-078F
Perigee: 503.9 km
Apogee: 17,601.3 km
Inclination: 6.8 °
Period: 317.7 minutes
Semi major axis: 15423 km
RCS: 11.1701 m2 (large)
Launch date: September 16, 1987
Source: France (FR)
Launch site: FRENCH GUIANA (FRGUI)

Note: This is SATELLITE DEBRIS
Your satellite tracking list
Your tracking list is empty




NASA's NSSDC Master Catalog

Two Line Element Set (TLE):
1 18571U 87078F   24325.25684328  .00000401  00000-0  90494-3 0  9990
2 18571   6.7522 319.3790 5542603  26.7845 353.4703  4.53235947403346
Source of the keplerian elements: AFSPC